Username
Password
 
Info Terbaru :
  

Jackpot hanya dapat di beli di awal sebelum periode tersebut berjalan dan jika berhasil maka anda dapat melihat di sisi kiri bawah atau kiri atas akan terdapat notifikasi bahwa jackpot anda berhasil di beli.

Jika anda membeli jackpot di tengah permainan maka pembelian jackpot akan berlaku untuk periode selanjutnya.

Jackpot Winner Ceme

Jackpot dilihat dari gabungan kartu pemain dengan kartu bandar. Bandar harus membeli jackpot sebanyak jumlah player yang sedang duduk. Sebagai contoh bila terdapat 3 pemain duduk bermain, dan bandar memutuskan untuk membeli jackpot Rp 1.000, maka pada periode tersebut bandar akan membeli jackpot sebanyak 3xRp1.000 = Rp3.000.

Jackpot bukanlah suatu keharusan untuk dibeli, namun kami memberikan suatu fitur tambahan untuk member tercinta dari www.cooldp.com.

Terdapat tiga pilihan harga jackpot yang bisa anda beli yaitu :100,500 dan 1000 rupiah.

Hadiah dari Multi jackpot system www.cooldp.com


  • Murni Kecil x 50 harga jackpot yang anda beli.

    (contoh:anda membeli 1000 maka:1000 X 50 = 50.000)

  • Murni Besar x 50 harga jackpot yang anda beli

    (contoh:anda membeli 1000 maka:1000 X 50 = 50.000)

  • BALAK x 200 harga jackpot yang anda beli

    (contoh:anda membeli 1000 maka:1000 X 200 = 200.000)

  • ENAM DEWA x 6666 harga jackpot yang anda beli

    (contoh:anda membeli 1000 maka:1000 X 6666 = 6.666.000)


Demikian adalah penjelasan dari Multi Jackpot www.cooldp.com terima kasih dan selamat bermain salam hoki dari kami


Jackpot Winner

TOP ENAM DEWA
No. Tanggal Nama Price Win
1 20/03 01:22 KIYAT murni enam 6,666,000
2 20/03 01:20 CHANNMAX murni enam 6,666,000
3 20/03 01:15 RYWA0604 murni enam 6,666,000
4 20/03 01:12 GILE_88 murni enam 6,666,000
5 20/03 01:12 B69NIKNIK78720 murni enam 3,333,000
TOP BALAK
No. Tanggal Nama Price Win
1 20/03 01:49 CONRAD balak 20,000
2 20/03 01:48 OTTOO904 balak 200,000
3 20/03 01:48 LABIBA balak 200,000
4 20/03 01:48 PREPET balak 100,000
5 20/03 01:48 DHIRA555 balak 20,000
LATEST JACKPOT
No. Tanggal Nama Price Win
1 20/03 01:49 CONRAD balak 20,000
2 20/03 01:48 UUL1616 murni kecil 50,000
3 20/03 01:48 HIJRAPUTRA murni kecil 50,000
4 20/03 01:48 DYNAMIC29 murni kecil 5,000
5 20/03 01:48 RIKOJIMA11 murni kecil 25,000
6 20/03 01:48 OTTOO904 balak 200,000
7 20/03 01:48 AZZAA11 murni kecil 50,000
8 20/03 01:48 LABIBA balak 200,000
9 20/03 01:48 PREPET balak 100,000
10 20/03 01:48 SUGIAJA murni besar 50,000
11 20/03 01:48 TEGA007 murni besar 50,000
12 20/03 01:48 DTH019 murni kecil 5,000
13 20/03 01:48 PANCA26 murni besar 25,000
14 20/03 01:48 RJL27 murni kecil 50,000
15 20/03 01:48 KURSA47 murni kecil 50,000
16 20/03 01:48 RJL27 murni kecil 50,000
17 20/03 01:48 DHIRA555 balak 20,000
18 20/03 01:48 DOSAKAU murni besar 50,000
19 20/03 01:48 JACK_D123 murni kecil 25,000
20 20/03 01:48 CHIN24 murni kecil 5,000
21 20/03 01:48 MATRIX89ON balak 200,000
22 20/03 01:48 IWF8TPQHF2 balak 20,000
23 20/03 01:47 JAPRA979 murni kecil 25,000
24 20/03 01:47 CRUSNEIL murni kecil 25,000
25 20/03 01:47 HERUZ99 murni kecil 50,000
26 20/03 01:47 KARIEM75 murni kecil 50,000
27 20/03 01:47 A7I5 murni kecil 25,000
28 20/03 01:47 KKTV3CKE19 murni kecil 25,000
29 20/03 01:47 RIFKYAHAY balak 200,000
30 20/03 01:47 NB87666 balak 100,000
31 20/03 01:47 LAHOMI9 murni besar 50,000
32 20/03 01:47 OCKTHA69 murni kecil 5,000
33 20/03 01:47 T0KEK murni kecil 5,000
34 20/03 01:47 KING040196 murni besar 50,000
35 20/03 01:47 CLASDMEX21 murni besar 50,000
36 20/03 01:47 GOLSOM45 murni besar 25,000
37 20/03 01:47 L4P499 murni besar 50,000
38 20/03 01:47 STEMPLET murni kecil 50,000
39 20/03 01:47 BINT4NGKU murni kecil 25,000
40 20/03 01:47 TAZMANIA13 murni besar 50,000
41 20/03 01:47 LUSRYAGEN murni besar 50,000
42 20/03 01:47 SEMOT1922 balak 200,000
43 20/03 01:47 BLEDEX87 murni besar 50,000
44 20/03 01:46 GINA1927 balak 200,000
45 20/03 01:46 BBBBIL balak 20,000
46 20/03 01:46 KEREN077 murni kecil 50,000
47 20/03 01:46 AYAN17 murni kecil 50,000
48 20/03 01:46 JENGGOT82 balak 100,000
49 20/03 01:46 WM291284 murni kecil 25,000
50 20/03 01:46 JAWIR2 murni besar 50,000


Situs Poker Online
Dewapoker.com Hadir untuk semua pecinta permainan kartu poker online yang khususnya berada di asia. Dengan system teknology baru dan server kecepatan tinggi akan membuat permainan poker anda lebih seru dan menarik bersama teman2x anda maupun saingan anda. Cukup lakukan login dan langsung bermain tanpa download. Dewapoker.com dengan encrypsi server yang tinggi akan menjamin keamanan data para member.
Terms & Conditions Link Alternatif Cara Bermain Video Dewapoker
© Copyright 2019 Dewa Poker. All right reserved.